Mazatlan Airport, Mexico

9:32 PM MST on November 23, 2017 (GMT -0700)
Gen Rafael Buelna International

Weather History for MMMZ - March, 2014

Change the Weather History Date:

Friday, March 7, 2014

  Actual Average Record
Temperature  
Mean Temperature 66 °F -  
Max Temperature 82 °F 79 °F 91 °F (1999)
Min Temperature 51 °F 52 °F 44 °F (2003)
Cooling Degree Days 2    
Growing Degree Days 16 (Base 50)    
Moisture  
Dew Point 56 °F    
Average Humidity 66    
Maximum Humidity 99    
Minimum Humidity 37    
Precipitation  
Precipitation 0.00 in - - ()
Sea Level Pressure  
Sea Level Pressure 29.93 in    
Wind  
Wind Speed 6 mph ()    
Max Wind Speed 15 mph    
Max Gust Speed -    
Visibility 11.5 miles    
Events      
Averages and records for this station are not official NWS values.
T = Trace of Precipitation, MM = Missing Value Source: Averaged Metar Reports

Daily Weather History Graph

Daily Weather History Graph

Search for Another Location

Airport or City:

Trip Planner

Search our weather history database for the weather conditions in past years. The results will help you decide how hot, cold, wet, or windy it might be!

Date:

Astronomy

Mar. 07, 2014 Rise Set
Actual Time 6:21 AM MST 6:11 PM MST
Civil Twilight 5:58 AM MST 6:33 PM MST
Nautical Twilight 5:32 AM MST 6:59 PM MST
Astronomical Twilight 5:06 AM MST 7:25 PM MST
Moon 10:57 AM MST (3/7) No Moon Set
Length of Visible Light 12h 34m
Length of Day
11h 49m
Waxing Crescent, 42% of the Moon is Illuminated
Mar 7
Waxing Crescent
Mar 8
First Quarter
Mar 16
Full
Mar 23
Last Quarter
Mar 30
New

Hourly Weather History & Observations

Time (MST) Temp. Heat Index Dew Point Humidity Pressure Visibility Wind Dir Wind Speed Gust Speed Precip Events Conditions
12:42 AM 57.2 °F - 51.8 °F 82% 29.93 in 8.0 mi ENE 6.9 mph - N/A   Clear
1:43 AM 55.4 °F - 50.0 °F 82% 29.92 in 8.0 mi Calm Calm - N/A   Clear
2:00 AM 66 °F - 66 °F 99% 29.93 in - SSE 2.2 mph - -  
2:43 AM 55.4 °F - 48.2 °F 77% 29.91 in 8.0 mi NNW 6.9 mph - N/A   Clear
3:42 AM 55.4 °F - 48.2 °F 77% 29.91 in 8.0 mi North 9.2 mph - N/A   Clear
4:49 AM 55.4 °F - 48.2 °F 77% 29.92 in 8.0 mi NNE 9.2 mph - N/A   Clear
5:00 AM 65 °F - 64 °F 96% 29.93 in - NE 2.2 mph - -  
5:42 AM 51.8 °F - 48.2 °F 88% 29.92 in 8.0 mi NNE 8.1 mph - N/A   Clear
6:45 AM 55.4 °F - 46.4 °F 72% 29.93 in 10.0 mi NNE 8.1 mph - N/A   Scattered Clouds
7:50 AM 66.2 °F - 55.4 °F 68% 29.95 in 12.0 mi North 10.4 mph - N/A   Scattered Clouds
8:00 AM 73 °F - 64 °F 67% 29.96 in - Calm Calm - -  
8:43 AM 73.4 °F - 57.2 °F 57% 29.95 in 15.0 mi NNE 6.9 mph - N/A   Mostly Cloudy
9:45 AM 77.0 °F - 60.8 °F 57% 29.96 in 15.0 mi SSE 8.1 mph - N/A   Scattered Clouds
10:44 AM 78.8 °F - 59.0 °F 51% 29.95 in 15.0 mi WSW 4.6 mph - N/A   Scattered Clouds
11:00 AM 82 °F - 60 °F 37% 29.97 in - WSW 4.5 mph - -  
11:41 AM 82.4 °F 82.5 °F 59.0 °F 45% 29.94 in 15.0 mi SSW 10.4 mph - N/A   Scattered Clouds
12:46 PM 80.6 °F 81.1 °F 59.0 °F 48% 29.93 in 15.0 mi SSW 11.5 mph - N/A   Scattered Clouds
1:45 PM 80.6 °F 81.1 °F 59.0 °F 48% 29.91 in 15.0 mi SSW 15.0 mph - N/A   Scattered Clouds
2:00 PM 80 °F - 63 °F 46% 29.94 in - WSW 6.7 mph - -  
2:43 PM 78.8 °F - 55.4 °F 44% 29.89 in 15.0 mi SSW 10.4 mph - N/A   Scattered Clouds
3:46 PM 77.0 °F - 55.4 °F 47% 29.88 in 15.0 mi WSW 12.7 mph - N/A   Scattered Clouds
4:40 PM 75.2 °F - 55.4 °F 50% 29.88 in 15.0 mi WSW 10.4 mph - N/A   Scattered Clouds
5:40 PM 71.6 °F - 57.2 °F 60% 29.88 in 12.0 mi SW 9.2 mph - N/A   Mostly Cloudy
6:45 PM 69.8 °F - 57.2 °F 64% 29.90 in 10.0 mi SW 8.1 mph - N/A   Mostly Cloudy
7:44 PM 66.2 °F - 55.4 °F 68% 29.91 in 10.0 mi SSE 6.9 mph - N/A   Scattered Clouds
8:00 PM 72 °F - 65 °F 74% 29.93 in - South 2.2 mph - -  
8:43 PM 64.4 °F - 55.4 °F 73% 29.93 in 10.0 mi East 6.9 mph - N/A   Partly Cloudy
9:43 PM 62.6 °F - 53.6 °F 72% 29.94 in 10.0 mi East 6.9 mph - N/A   Clear
10:40 PM 62.6 °F - 53.6 °F 72% 29.96 in 10.0 mi East 5.8 mph - N/A   Clear
11:43 PM 60.8 °F - 51.8 °F 72% 29.96 in 10.0 mi North 8.1 mph - N/A   Clear